Flag for United Kingdom Weather past 2 weeks in Bridlington, England, United Kingdom

Now
58 °F

Cool.


Feels Like: 55 °F
Forecast: 54 / 65 °F
Wind: 14 mph from South

Location: Bridlington Mrsc

Current Time: Jul 31, 2015 at 10:28:17 PM

Latest Report: Jul 31, 2015 at 9:00 PM


Visibility: N/A

Pressure: 29.93 "Hg

Humidity: 90%

Dew point: 55 °F

Location of BridlingtonLocation

Historic Weather in Bridlington — Graph

°F

Bridlington temperature yesterday

Maximum temperature yesterday: 59 °F (at 2:00 PM)
Minimum temperature yesterday: 51 °F (at 3:00 AM)
Average temperature yesterday: 55 °F

Past Weeks' High & Low Weather Summary

 TemperatureHumidityPressure
High74 °F (Jul 17, 1:00 PM)100% (Jul 16, 11:00 PM)30.12 "Hg (Jul 16, 11:00 PM)
Low45 °F (Jul 26, 5:00 AM)40% (Jul 18, 2:00 PM)29.29 "Hg (Jul 27, 2:00 AM)
Average58 °F81%29.80 "Hg
* Reported Jul 16 9:00 PM — Jul 31 9:00 PM, Bridlington, Weather by CustomWeather, © 2015

Note: Actual official high and low records may vary slightly from our data, if they occured in-between our weather recording intervals... More about our weather records

Advertising

Bridlington weather history for previous 24 hours

 ConditionsComfort  
Time TempWeatherWind HumidityBarometerVisibility
9:00 PM
Fri, Jul 31
58 °FCool.14 mph90%29.93 "HgN/A
8:00 PM58 °FCool.20 mph91%29.93 "HgN/A
7:00 PM59 °FCool.18 mph85%29.94 "HgN/A
6:00 PM59 °FCool.16 mph83%29.96 "HgN/A
5:00 PM60 °FCool.17 mph78%29.98 "HgN/A
4:00 PM61 °FCool.18 mph76%29.99 "HgN/A
3:00 PM62 °FCool.18 mph73%30.01 "HgN/A
2:00 PM62 °FCool.17 mph75%30.02 "HgN/A
1:00 PM61 °FCool.17 mph75%30.03 "HgN/A
12:00 PM62 °FCool.13 mph67%30.04 "HgN/A
11:00 AM61 °FCool.10 mph74%30.05 "HgN/A
10:00 AM60 °FCool.7 mph76%30.07 "HgN/A
9:00 AM57 °FCool.3 mph78%30.08 "HgN/A
8:00 AM54 °FCool.5 mph83%30.08 "HgN/A
7:00 AM50 °FCool.7 mph88%30.08 "HgN/A
6:00 AM47 °FCool.8 mph94%30.08 "HgN/A
5:00 AM46 °FCool.7 mph96%30.08 "HgN/A
3:00 AM48 °FCool.2 mph95%30.10 "HgN/A
2:00 AM52 °FCool.5 mph86%30.10 "HgN/A
1:00 AM53 °FCool.8 mph82%30.11 "HgN/A
12:00 AM53 °FCool.9 mph77%30.11 "HgN/A
11:00 PM
Thu, Jul 30
54 °FCool.7 mph72%30.12 "HgN/A
Weather by CustomWeather, © 2015

See weather overviewHow to use our weather pages